Location: Los Ranchitos
(37.9930°N, 122.5425°W)
Time: 03:19:32
(UTC+00:00)

Sich 1 Rocket - Pass Details

Date: 21 September 2020
Orbit: 616 x 652 km, 82.5° (Epoch: 27 October)

Event Time Altitude Azimuth Distance (km) Brightness Sun altitude
Rises 02:31:33 0° 167° (SSE) 2,909 6.8 -5.2°
Reaches altitude 10° 02:33:52 10° 160° (SSE) 2,012 5.9 -5.7°
Maximum altitude 02:38:00 39° 92° (E) 966 4.1 -6.5°
Drops below altitude 10° 02:42:13 10° 23° (NNE) 2,047 6.1 -7.3°
Sets 02:44:36 0° 16° (NNE) 2,966 7.0 -7.8°
